QPF
0.00 0.00 0.00 0.00 0.00 0.00 0.00 0.00 0.00 0.00 0.00 0.00 0.00 0.00 0.00 0.00 0.00 0.00 0.01 0.01 0.03 0.00 0.00 0.00 0.00 0.00 0.00 0.01 0.06 0.09 0.02 0.00 0.02 0.04 0.03 0.01 0.00 0.00 0.01 0.00 0.01 0.00 0.00 0.06
0.00 0.00 0.00 0.00 0.00 0.00 0.00 0.00 0.00 0.00 0.00 0.00 0.00 0.00 0.00 0.00 0.00 0.00 0.00 0.01 0.02 0.00 0.00 0.00 0.00 0.00 0.00 0.00 0.00 0.01 0.01 0.03 0.06 0.01 0.00 0.01 0.01 0.01 0.03 0.02 0.00 0.00 0.00 0.04
0.00 0.00 0.00 0.00 0.00 0.00 0.00 0.00 0.00 0.00 0.00 0.00 0.00 0.00 0.00 0.00 0.00 0.00 0.00 0.00 0.01 0.00 0.00 0.00 0.00 0.00 0.00 0.00 0.00 0.00 0.00 0.02 0.01 0.03 0.01 0.01 0.03 0.04 0.02 0.01 0.00 0.00 0.00 0.00
0.00 0.00 0.00 0.00 0.00 0.00 0.00 0.00 0.00 0.00 0.00 0.00 0.00 0.00 0.00 0.00 0.00 0.00 0.00 0.00 0.00 0.00 0.00 0.00 0.00 0.00 0.00 0.00 0.00 0.00 0.00 0.00 0.00 0.00 0.02 0.04 0.05 0.04 0.01 0.00 0.01 0.00 0.00 0.00
0.00 0.00 0.00 0.00 0.00 0.00 0.00 0.00 0.00 0.00 0.00 0.00 0.00 0.00 0.00 0.00 0.02 0.01 0.00 0.00 0.00 0.00 0.00 0.00 0.00 0.00 0.00 0.00 0.00 0.00 0.00 0.00 0.00 0.00 0.03 0.06 0.06 0.04 0.00 0.00 0.01 0.00 0.02 0.00
0.00 0.00 0.00 0.00 0.00 0.00 0.00 0.00 0.00 0.00 0.00 0.00 0.00 0.00 0.00 0.00 0.00 0.02 0.00 0.00 0.00 0.00 0.00 0.00 0.00 0.00 0.00 0.00 0.00 0.00 0.00 0.00 0.00 0.00 0.00 0.05 0.09 0.09 0.08 0.04 0.01 0.00 0.00 0.01
0.00 0.00 0.00 0.00 0.00 0.00 0.00 0.00 0.00 0.00 0.00 0.00 0.00 0.00 0.00 0.00 0.00 0.00 0.00 0.00 0.00 0.00 0.00 0.00 0.00 0.00 0.00 0.00 0.00 0.00 0.00 0.00 0.00 0.00 0.00 0.02 0.05 0.04 0.02 0.00 0.01 0.00 0.00 0.00
0.00 0.00 0.00 0.00 0.00 0.00 0.00 0.00 0.00 0.00 0.00 0.00 0.00 0.00 0.00 0.00 0.00 0.00 0.00 0.00 0.00 0.00 0.00 0.00 0.00 0.00 0.00 0.00 0.00 0.00 0.00 0.00 0.00 0.00 0.00 0.01 0.01 0.00 0.01 0.02 0.00 0.00 0.00 0.00
0.00 0.00 0.00 0.00 0.00 0.00 0.00 0.00 0.00 0.00 0.00 0.00 0.00 0.00 0.00 0.00 0.00 0.00 0.00 0.00 0.00 0.00 0.00 0.00 0.00 0.00 0.00 0.00 0.00 0.00 0.00 0.00 0.00 0.00 0.00 0.00 0.00 0.00 0.01 0.00 0.00 0.00 0.00 0.00
0.00 0.00 0.00 0.00 0.00 0.00 0.00 0.00 0.00 0.00 0.00 0.00 0.00 0.00 0.00 0.00 0.00 0.00 0.00 0.00 0.00 0.00 0.00 0.00 0.00 0.00 0.00 0.00 0.00 0.00 0.00 0.00 0.00 0.00 0.00 0.00 0.00 0.00 0.00 0.00 0.00 0.00 0.00 0.00
0.00 0.00 0.00 0.00 0.00 0.00 0.00 0.00 0.00 0.00 0.00 0.00 0.00 0.00 0.00 0.00 0.00 0.00 0.00 0.00 0.00 0.00 0.00 0.00 0.00 0.00 0.00 0.00 0.00 0.00 0.00 0.00 0.01 0.00 0.00 0.00 0.00 0.00 0.00 0.00 0.00 0.00 0.00 0.00
0.00 0.00 0.00 0.00 0.00 0.00 0.00 0.00 0.00 0.00 0.00 0.00 0.00 0.00 0.00 0.00 0.00 0.00 0.00 0.00 0.00 0.00 0.00 0.00 0.00 0.00 0.00 0.00 0.00 0.00 0.00 0.00 0.00 0.00 0.00 0.00 0.00 0.00 0.00 0.00 0.00 0.00 0.00 0.00
0.00 0.00 0.00 0.00 0.00 0.00 0.00 0.00 0.00 0.00 0.00 0.00 0.00 0.00 0.00 0.00 0.00 0.00 0.00 0.00 0.00 0.00 0.00 0.00 0.00 0.00 0.00 0.00 0.00 0.00 0.00 0.00 0.00 0.00 0.00 0.00 0.00 0.00 0.00 0.00 0.00 0.00 0.01 0.02
0.00 0.00 0.00 0.00 0.00 0.00 0.00 0.00 0.00 0.00 0.00 0.00 0.00 0.00 0.00 0.00 0.01 0.00 0.00 0.00 0.00 0.00 0.00 0.00 0.00 0.00 0.00 0.00 0.00 0.00 0.00 0.00 0.00 0.00 0.00 0.00 0.00 0.00 0.00 0.00 0.01 0.02 0.02 0.03
0.00 0.00 0.00 0.00 0.00 0.00 0.00 0.00 0.00 0.00 0.00 0.00 0.00 0.00 0.00 0.00 0.01 0.00 0.00 0.00 0.00 0.00 0.00 0.00 0.00 0.00 0.00 0.00 0.00 0.00 0.00 0.00 0.00 0.00 0.00 0.00 0.00 0.00 0.01 0.02 0.03 0.03 0.02 0.03
0.00 0.00 0.00 0.00 0.00 0.00 0.00 0.00 0.00 0.00 0.00 0.00 0.00 0.00 0.01 0.01 0.00 0.00 0.00 0.00 0.00 0.00 0.00 0.00 0.00 0.00 0.00 0.00 0.00 0.00 0.00 0.00 0.00 0.00 0.00 0.00 0.00 0.00 0.01 0.02 0.05 0.03 0.02 0.02
0.00 0.00 0.00 0.00 0.00 0.00 0.00 0.00 0.00 0.00 0.00 0.00 0.00 0.00 0.00 0.01 0.01 0.01 0.00 0.00 0.00 0.00 0.00 0.00 0.00 0.00 0.00 0.00 0.00 0.00 0.01 0.03 0.02 0.00 0.00 0.00 0.00 0.02 0.03 0.07 0.04 0.02 0.02 0.02
0.00 0.00 0.00 0.00 0.00 0.00 0.00 0.00 0.00 0.00 0.00 0.00 0.00 0.00 0.00 0.00 0.00 0.00 0.00 0.00 0.00 0.00 0.00 0.00 0.01 0.01 0.00 0.00 0.00 0.00 0.00 0.02 0.03 0.01 0.00 0.02 0.04 0.08 0.09 0.04 0.02 0.01 0.01 0.02
0.00 0.00 0.00 0.00 0.00 0.00 0.00 0.00 0.00 0.00 0.00 0.00 0.00 0.00 0.00 0.00 0.00 0.00 0.00 0.00 0.00 0.00 0.00 0.03 0.02 0.01 0.00 0.00 0.00 0.02 0.09 0.10 0.02 0.05 0.11 0.13 0.08 0.04 0.00 0.00 0.00 0.00 0.00 0.00
0.00 0.00 0.00 0.00 0.00 0.00 0.00 0.00 0.00 0.00 0.00 0.00 0.00 0.00 0.00 0.00 0.00 0.00 0.00 0.00 0.00 0.00 0.03 0.04 0.01 0.00 0.00 0.00 0.03 0.06 0.06 0.10 0.17 0.21 0.16 0.05 0.00 0.00 0.00 0.00 0.00 0.00 0.00 0.00
0.00 0.00 0.00 0.00 0.00 0.00 0.00 0.00 0.00 0.00 0.00 0.00 0.00 0.00 0.00 0.00 0.00 0.00 0.00 0.00 0.00 0.00 0.01 0.00 0.00 0.00 0.00 0.00 0.00 0.00 0.10 0.10 0.04 0.02 0.01 0.00 0.00 0.00 0.00 0.00 0.00 0.00 0.00 0.00
0.00 0.00 0.00 0.00 0.00 0.00 0.00 0.00 0.00 0.00 0.00 0.00 0.00 0.00 0.00 0.00 0.00 0.00 0.00 0.00 0.00 0.00 0.00 0.00 0.00 0.00 0.00 0.00 0.00 0.00 0.00 0.01 0.00 0.00 0.00 0.00 0.00 0.00 0.00 0.00 0.00 0.00 0.00 0.00
0.01 0.00 0.00 0.00 0.00 0.01 0.01 0.02 0.00 0.00 0.00 0.00 0.00 0.00 0.00 0.00 0.00 0.00 0.00 0.00 0.00 0.00 0.00 0.00 0.00 0.00 0.00 0.00 0.00 0.00 0.00 0.00 0.00 0.00 0.00 0.00 0.00 0.00 0.00 0.00 0.00 0.00 0.00 0.00
0.01 0.00 0.00 0.00 0.00 0.00 0.00 0.00 0.00 0.00 0.00 0.00 0.00 0.00 0.00 0.00 0.00 0.00 0.00 0.00 0.00 0.00 0.00 0.00 0.01 0.00 0.00 0.00 0.00 0.00 0.00 0.00 0.00 0.00 0.00 0.00 0.00 0.00 0.00 0.00 0.00 0.00 0.00 0.00
0.01 0.00 0.00 0.00 0.00 0.00 0.00 0.00 0.00 0.00 0.00 0.00 0.00 0.00 0.00 0.00 0.00 0.00 0.00 0.00 0.00 0.00 0.00 0.00 0.00 0.00 0.00 0.00 0.00 0.00 0.00 0.00 0.00 0.00 0.00 0.00 0.00 0.00 0.00 0.00 0.00 0.00 0.00 0.00
0.00 0.00 0.00 0.01 0.00 0.00 0.00 0.00 0.00 0.00 0.00 0.00 0.00 0.00 0.00 0.00 0.00 0.00 0.00 0.00 0.00 0.00 0.00 0.00 0.00 0.00 0.00 0.00 0.00 0.00 0.00 0.00 0.00 0.00 0.00 0.00 0.00 0.00 0.00 0.00 0.00 0.00 0.00 0.00
MSLP
1000.95 1000.73 999.96 999.51 998.73 999.61 999.58 999.40 999.21 998.80 998.17 998.59 998.66 999.08 999.60 999.71 1000.33 1001.69 1003.54 1005.44 1006.18 1005.23 1003.48 1003.99 1005.17 1005.94 1007.31 1008.90 1009.54 1010.39 1011.26 1011.60 1011.86 1011.83 1012.07 1012.33 1012.27 1011.91 1011.79 1012.10 1012.19 1012.50 1012.52 1012.69
1000.54 999.83 999.50 999.05 998.55 999.51 999.00 998.50 997.97 998.22 998.51 998.73 998.48 998.37 998.60 999.02 999.95 1000.89 1002.46 1004.90 1005.03 1003.82 1003.67 1003.54 1004.69 1005.38 1006.40 1008.04 1009.13 1010.11 1010.41 1010.79 1011.23 1011.50 1011.91 1011.77 1011.80 1011.93 1011.82 1012.35 1012.31 1012.69 1012.85 1012.87
999.67 999.04 999.09 998.61 998.41 998.85 998.32 997.79 998.02 998.95 999.31 998.37 998.39 998.39 998.75 999.35 1000.03 1000.51 1000.72 1002.04 1002.20 1001.73 1002.06 1002.99 1004.25 1005.00 1005.96 1007.01 1007.99 1008.93 1009.64 1010.25 1010.99 1011.28 1011.63 1011.65 1011.83 1012.09 1012.37 1012.36 1012.51 1012.72 1012.92 1013.03
999.19 998.61 998.06 998.18 997.74 998.73 997.93 997.69 997.89 998.20 998.39 997.92 998.28 998.68 999.67 1001.10 1002.70 1001.10 1000.50 1000.26 1000.32 1000.50 1001.43 1002.15 1003.27 1004.49 1005.55 1006.66 1007.82 1008.67 1009.29 1010.04 1010.75 1011.28 1011.54 1012.00 1012.21 1012.31 1012.14 1012.06 1012.10 1012.55 1012.36 1012.38
998.55 998.00 997.55 997.33 997.15 997.70 997.42 998.21 998.34 998.04 997.94 997.95 998.18 999.09 999.38 1001.75 1003.13 1001.65 1000.30 1000.00 999.82 999.79 1000.63 1001.78 1002.83 1003.95 1004.96 1006.42 1007.87 1008.94 1009.60 1010.22 1010.62 1011.23 1011.72 1011.96 1012.27 1012.41 1011.91 1012.01 1012.09 1011.97 1012.04 1011.68
998.05 997.39 997.50 997.09 996.72 996.69 997.20 999.04 998.25 998.19 998.08 997.89 997.22 998.63 999.34 1001.02 1001.06 1001.46 1000.20 999.13 999.34 999.23 1000.20 1001.26 1002.18 1003.60 1004.93 1006.35 1007.68 1008.83 1009.78 1010.46 1010.89 1011.17 1011.57 1012.04 1012.42 1012.61 1012.44 1012.56 1012.31 1012.08 1011.68 1011.49
997.87 997.22 996.84 996.83 996.50 996.67 997.00 997.12 997.39 997.83 997.93 999.25 999.73 999.82 998.94 998.92 998.73 998.29 998.40 998.43 998.95 999.37 1000.23 1001.40 1002.56 1003.78 1005.15 1006.43 1007.54 1008.75 1009.75 1010.41 1010.68 1010.96 1011.21 1011.56 1012.04 1012.17 1012.31 1012.32 1012.20 1012.19 1011.99 1011.87
997.28 996.94 996.69 996.42 996.71 996.53 996.60 996.80 996.91 997.56 1000.54 1001.18 1001.37 1000.14 999.65 997.81 997.47 997.74 997.46 997.99 998.88 999.55 1000.44 1001.63 1003.00 1004.29 1005.35 1006.44 1007.53 1008.57 1009.74 1010.37 1010.82 1011.06 1011.32 1011.69 1011.98 1012.16 1012.32 1012.46 1012.35 1012.55 1012.32 1012.39
996.23 996.20 996.15 996.06 996.47 996.57 996.58 996.53 996.62 997.08 1000.74 1001.22 999.66 999.02 998.48 997.44 997.45 997.65 997.32 997.77 998.88 999.86 1000.68 1001.82 1003.06 1004.33 1005.42 1006.41 1007.50 1008.54 1009.63 1010.30 1010.65 1010.93 1011.49 1011.86 1012.11 1012.19 1012.36 1012.48 1012.61 1012.75 1012.72 1012.77
996.00 995.50 995.29 995.51 996.13 996.22 996.31 996.91 996.57 996.87 998.59 999.30 998.38 998.42 998.44 998.25 997.96 997.67 997.66 998.20 998.93 1000.00 1001.02 1001.92 1002.91 1004.10 1005.31 1006.34 1007.39 1008.29 1009.41 1010.06 1010.34 1010.91 1011.41 1011.86 1012.06 1012.17 1012.37 1012.46 1012.69 1012.83 1012.90 1013.00
996.39 995.71 994.99 994.91 995.26 995.43 995.90 996.16 997.16 996.72 996.90 996.85 997.35 998.29 998.89 998.78 997.93 997.82 997.85 998.48 999.23 1000.18 1001.19 1002.07 1003.11 1004.29 1005.41 1006.35 1007.45 1008.33 1009.17 1009.70 1010.16 1010.66 1011.22 1011.55 1011.76 1012.08 1012.43 1012.49 1012.65 1012.76 1012.88 1012.88
996.44 995.95 995.06 994.41 994.52 995.17 995.06 995.34 995.88 995.55 996.34 996.39 997.10 999.47 1000.00 1000.14 998.60 997.84 998.00 998.74 999.22 1000.24 1001.28 1002.36 1003.48 1004.67 1005.80 1006.75 1007.58 1008.30 1008.77 1009.21 1009.89 1010.62 1011.19 1011.62 1011.61 1011.79 1012.11 1012.30 1012.37 1012.52 1012.67 1012.88
996.31 996.31 995.74 995.04 994.77 994.77 995.11 994.75 994.62 994.69 994.83 995.95 997.65 1000.98 1001.38 1001.97 1000.67 999.08 998.43 998.76 999.00 1000.35 1001.51 1002.77 1004.05 1005.15 1006.13 1007.03 1007.70 1008.22 1008.83 1009.47 1010.06 1010.69 1011.01 1011.52 1011.69 1011.81 1011.84 1012.03 1012.23 1012.46 1012.74 1012.89
996.31 996.19 995.86 995.86 997.98 996.24 995.01 994.56 994.26 994.47 995.12 996.93 999.51 1002.61 1003.70 1004.55 1002.53 1001.00 998.78 999.26 999.77 1000.52 1001.65 1003.09 1004.39 1005.58 1006.50 1007.33 1008.01 1008.56 1009.05 1009.43 1010.03 1010.54 1010.89 1011.24 1011.59 1011.87 1012.08 1012.22 1012.54 1012.85 1012.90 1012.85
996.38 996.08 996.08 996.30 997.76 996.28 994.49 994.03 994.21 994.61 994.96 996.60 999.19 1001.73 1004.43 1003.36 1003.90 1001.15 999.92 999.47 999.93 1000.70 1001.87 1003.22 1004.34 1005.45 1006.61 1007.48 1008.23 1008.74 1009.07 1009.40 1009.84 1010.55 1010.91 1011.21 1011.55 1011.89 1012.15 1012.57 1012.77 1013.04 1013.02 1012.99
995.98 995.96 996.20 996.40 996.29 996.07 994.28 993.72 994.22 995.00 995.54 996.11 997.90 1002.63 1004.07 1004.21 1002.09 1002.66 1000.74 999.94 1000.14 1001.07 1002.29 1003.58 1004.57 1005.51 1006.51 1007.57 1008.22 1008.68 1009.07 1009.57 1010.01 1010.36 1010.70 1011.22 1011.56 1011.84 1012.21 1012.53 1012.82 1012.82 1012.95 1012.86
995.43 995.58 995.86 996.12 996.73 997.12 995.65 994.21 994.52 995.28 995.86 996.33 996.59 998.83 1001.33 1003.14 1004.51 1003.58 1001.09 1000.67 1000.51 1001.46 1002.79 1003.71 1004.58 1005.44 1006.44 1007.30 1007.98 1008.65 1009.09 1009.84 1010.54 1010.94 1011.10 1011.34 1011.69 1011.99 1012.32 1012.60 1012.68 1012.67 1012.87 1012.88
995.06 995.25 995.51 995.78 998.06 997.62 994.86 993.88 993.87 994.64 995.85 995.97 995.51 997.53 999.62 1002.99 1002.78 1000.69 1000.37 1000.73 1000.56 1001.55 1003.17 1004.10 1004.70 1005.58 1006.26 1006.83 1007.44 1008.43 1009.65 1011.16 1012.47 1013.11 1012.55 1011.93 1012.15 1012.51 1012.73 1012.72 1012.86 1012.85 1012.95 1012.94
994.15 994.96 995.41 995.55 995.57 995.90 995.26 994.45 993.99 994.61 995.40 994.50 995.34 996.39 998.03 999.65 1000.36 1000.78 1000.55 1000.34 1001.11 1002.55 1004.07 1004.75 1005.08 1005.76 1006.55 1007.10 1007.89 1009.29 1010.88 1013.36 1012.92 1013.51 1013.58 1013.00 1012.67 1013.12 1013.13 1012.99 1013.22 1013.45 1013.43 1013.30
993.86 994.33 995.16 995.70 995.78 995.68 995.95 995.45 994.31 994.41 995.70 995.85 995.27 996.20 997.30 998.42 998.87 1000.73 1000.91 1002.12 1003.17 1004.05 1004.94 1005.18 1005.50 1006.61 1007.52 1008.43 1009.49 1010.65 1011.88 1012.07 1012.94 1013.48 1013.87 1013.13 1013.00 1013.27 1013.75 1013.57 1013.78 1013.81 1013.68 1013.49
994.47 994.39 995.15 995.80 996.95 997.87 998.01 997.83 995.57 996.10 997.05 995.84 995.84 996.78 997.68 999.27 1000.21 1001.98 1002.82 1003.47 1004.29 1005.25 1005.72 1005.91 1006.71 1007.72 1008.83 1009.68 1010.46 1011.63 1012.23 1012.45 1012.70 1013.40 1013.30 1012.96 1013.63 1013.95 1013.98 1013.95 1014.21 1014.08 1013.93 1013.61
996.17 995.47 995.95 996.97 998.18 1000.44 1000.01 999.57 996.52 996.97 997.06 997.41 996.98 998.31 999.35 1000.68 1002.05 1003.07 1003.93 1004.81 1005.73 1006.37 1007.04 1007.44 1008.30 1009.23 1010.12 1010.80 1011.30 1011.88 1012.26 1012.72 1012.83 1012.88 1012.74 1013.71 1014.25 1014.08 1014.05 1014.22 1014.40 1013.96 1013.76 1013.84
998.06 998.03 998.40 1000.76 1002.14 1002.57 1001.33 1001.45 998.34 997.12 998.71 998.45 998.47 999.27 999.91 1001.11 1002.59 1003.81 1004.94 1005.73 1006.35 1007.26 1008.15 1008.89 1009.65 1010.42 1011.03 1011.57 1012.00 1012.37 1012.90 1013.03 1012.99 1013.08 1013.59 1014.00 1014.14 1014.25 1014.34 1014.16 1014.25 1014.00 1014.21 1014.61
1000.33 999.12 999.89 1001.76 1002.89 1001.00 1000.71 1001.05 1000.11 998.54 998.21 998.51 999.08 1000.05 1000.70 1001.59 1002.99 1004.23 1005.29 1005.96 1006.69 1007.75 1008.57 1009.41 1010.59 1011.31 1011.94 1012.48 1012.76 1012.97 1013.11 1012.98 1013.08 1013.49 1013.77 1013.98 1014.11 1014.15 1014.21 1014.00 1014.19 1014.43 1014.86 1015.16
998.96 999.90 999.76 1001.58 1002.08 1000.09 999.96 999.83 998.72 999.34 998.55 997.81 999.14 1000.33 1001.54 1002.51 1003.27 1004.24 1005.21 1006.11 1006.98 1007.97 1008.76 1009.52 1010.56 1011.48 1012.20 1012.67 1012.97 1013.23 1013.28 1013.34 1013.45 1013.72 1013.94 1014.19 1013.99 1013.93 1013.90 1014.03 1014.37 1014.55 1015.24 1015.54
1001.26 1001.46 1001.77 1002.37 998.89 998.96 998.79 998.62 998.15 997.95 998.02 998.26 999.21 1000.41 1001.61 1002.70 1003.54 1004.31 1005.28 1006.25 1007.13 1008.19 1009.13 1009.90 1010.77 1011.51 1012.33 1012.96 1013.32 1013.53 1013.70 1013.61 1013.63 1013.70 1013.83 1014.15 1013.84 1013.91 1014.03 1014.19 1014.60 1014.96 1015.18 1015.67
Thickness
5848 5828 5823 5845 5866 5852 5853 5844 5840 5858 5883 5871 5866 5862 5860 5871 5880 5863 5835 5803 5809 5832 5857 5859 5845 5840 5831 5818 5808 5803 5795 5792 5791 5790 5791 5791 5790 5793 5799 5792 5792 5788 5786 5785
5831 5821 5851 5866 5875 5850 5856 5858 5866 5871 5877 5868 5867 5867 5881 5882 5878 5876 5845 5820 5818 5840 5844 5859 5850 5847 5838 5822 5813 5804 5802 5802 5801 5799 5797 5796 5794 5793 5794 5789 5788 5784 5780 5777
5824 5843 5861 5861 5861 5850 5861 5863 5860 5840 5852 5876 5867 5855 5867 5881 5880 5881 5884 5858 5839 5855 5864 5862 5851 5848 5843 5835 5827 5820 5814 5810 5805 5804 5799 5797 5793 5791 5786 5786 5784 5782 5776 5772
5834 5859 5860 5854 5855 5843 5842 5879 5871 5860 5851 5833 5871 5815 5844 5831 5816 5862 5877 5882 5879 5877 5873 5868 5859 5851 5845 5838 5833 5825 5819 5812 5807 5803 5797 5790 5784 5780 5786 5788 5789 5783 5781 5779
5829 5845 5849 5849 5860 5863 5860 5868 5862 5865 5857 5856 5854 5832 5849 5838 5807 5827 5870 5879 5883 5884 5878 5868 5862 5858 5854 5843 5831 5822 5817 5812 5808 5802 5796 5792 5785 5786 5791 5789 5786 5786 5785 5785
5843 5875 5860 5861 5880 5885 5886 5845 5859 5861 5857 5830 5866 5843 5831 5824 5818 5822 5862 5881 5883 5890 5880 5876 5870 5863 5852 5846 5835 5824 5814 5808 5805 5803 5798 5792 5786 5782 5781 5780 5781 5782 5786 5786
5831 5842 5868 5874 5859 5874 5870 5857 5823 5815 5825 5806 5834 5817 5843 5864 5873 5880 5877 5882 5885 5885 5877 5870 5862 5855 5848 5839 5833 5825 5816 5807 5806 5803 5800 5796 5790 5787 5783 5782 5782 5779 5780 5781
5805 5802 5843 5869 5852 5850 5857 5858 5830 5798 5745 5762 5813 5791 5819 5883 5892 5893 5895 5891 5885 5878 5872 5863 5857 5851 5845 5839 5831 5824 5813 5806 5803 5801 5798 5794 5790 5786 5782 5779 5779 5776 5777 5777
5822 5818 5862 5867 5867 5864 5847 5839 5874 5846 5803 5787 5827 5845 5866 5886 5882 5884 5888 5886 5877 5871 5866 5858 5854 5850 5844 5837 5830 5822 5812 5805 5803 5799 5794 5789 5787 5784 5780 5779 5777 5774 5774 5774
5843 5823 5861 5866 5869 5868 5857 5866 5839 5846 5782 5775 5822 5830 5823 5852 5860 5874 5876 5873 5874 5870 5863 5859 5855 5850 5844 5838 5831 5824 5813 5805 5803 5797 5792 5787 5785 5783 5780 5778 5773 5771 5772 5770
5842 5840 5847 5867 5847 5844 5848 5842 5836 5853 5848 5824 5821 5824 5858 5849 5869 5868 5875 5873 5870 5865 5860 5856 5852 5847 5841 5836 5827 5819 5811 5805 5800 5795 5789 5783 5781 5779 5776 5773 5771 5770 5770 5769
5840 5837 5826 5848 5877 5878 5872 5859 5856 5837 5826 5855 5852 5808 5861 5863 5876 5881 5876 5872 5872 5867 5861 5855 5848 5842 5834 5827 5822 5815 5811 5807 5800 5793 5785 5777 5774 5774 5772 5770 5770 5770 5766 5763
5837 5819 5805 5825 5855 5870 5849 5866 5875 5878 5880 5854 5834 5807 5833 5837 5847 5865 5872 5872 5867 5863 5857 5850 5841 5834 5827 5822 5818 5814 5809 5802 5797 5789 5783 5775 5771 5768 5769 5768 5768 5766 5761 5760
5838 5826 5820 5807 5768 5840 5841 5856 5873 5871 5849 5833 5814 5793 5798 5801 5823 5841 5872 5871 5865 5860 5850 5844 5836 5829 5825 5819 5814 5809 5804 5803 5795 5788 5782 5774 5771 5768 5766 5765 5762 5758 5758 5757
5828 5805 5828 5838 5809 5835 5859 5861 5864 5853 5865 5830 5817 5803 5788 5804 5804 5840 5864 5869 5861 5853 5843 5841 5834 5828 5820 5815 5809 5806 5803 5801 5795 5786 5780 5775 5772 5768 5764 5758 5754 5751 5751 5749
5830 5805 5824 5818 5832 5830 5842 5867 5861 5855 5858 5852 5847 5780 5799 5801 5826 5811 5851 5858 5853 5846 5841 5835 5829 5824 5816 5810 5804 5803 5799 5794 5790 5783 5777 5773 5768 5765 5760 5756 5750 5748 5745 5745
5816 5813 5810 5800 5816 5808 5805 5845 5850 5844 5848 5851 5839 5831 5817 5799 5776 5798 5845 5848 5847 5842 5834 5830 5825 5819 5811 5806 5804 5797 5794 5789 5779 5773 5770 5766 5762 5757 5753 5750 5747 5745 5740 5738
5813 5813 5816 5806 5777 5748 5839 5880 5877 5853 5842 5859 5875 5848 5831 5784 5780 5850 5855 5847 5845 5842 5830 5825 5820 5815 5811 5809 5807 5801 5787 5768 5754 5745 5749 5753 5748 5744 5743 5741 5737 5737 5733 5730
5841 5819 5803 5798 5804 5819 5835 5859 5861 5850 5846 5882 5872 5875 5856 5847 5842 5837 5851 5852 5845 5834 5822 5818 5819 5813 5808 5805 5799 5782 5764 5737 5736 5734 5731 5732 5735 5731 5732 5732 5726 5722 5720 5718
5847 5837 5816 5812 5800 5794 5834 5854 5877 5871 5816 5865 5872 5866 5854 5851 5822 5818 5839 5832 5824 5821 5814 5810 5811 5802 5795 5790 5779 5761 5746 5738 5724 5717 5713 5723 5724 5718 5717 5720 5714 5712 5711 5709
5817 5823 5806 5813 5799 5802 5807 5820 5867 5806 5807 5862 5866 5860 5856 5833 5834 5826 5824 5820 5816 5808 5803 5803 5794 5783 5776 5772 5765 5747 5737 5735 5736 5728 5723 5725 5716 5710 5710 5708 5703 5702 5701 5701
5808 5810 5813 5821 5807 5764 5806 5809 5825 5822 5839 5844 5852 5844 5835 5829 5822 5816 5810 5803 5796 5791 5786 5782 5772 5764 5761 5755 5749 5740 5735 5730 5728 5726 5724 5711 5703 5703 5701 5698 5692 5695 5694 5690
5789 5793 5786 5776 5763 5762 5784 5783 5823 5840 5820 5830 5836 5837 5833 5822 5812 5805 5794 5789 5786 5779 5769 5763 5754 5749 5746 5742 5736 5727 5722 5720 5718 5713 5707 5700 5697 5694 5691 5689 5685 5685 5682 5674
5772 5791 5768 5763 5755 5778 5795 5792 5795 5826 5832 5836 5830 5827 5824 5813 5805 5795 5788 5783 5777 5768 5758 5751 5740 5734 5729 5726 5722 5719 5717 5716 5712 5705 5701 5695 5692 5689 5686 5686 5681 5676 5669 5662
5763 5787 5789 5771 5763 5792 5787 5787 5817 5819 5830 5833 5826 5821 5812 5803 5796 5791 5783 5777 5770 5761 5754 5747 5736 5728 5722 5719 5715 5711 5710 5707 5703 5697 5692 5685 5688 5685 5682 5678 5672 5668 5659 5652
5775 5764 5765 5736 5785 5784 5797 5816 5827 5825 5826 5828 5819 5807 5806 5796 5787 5785 5777 5772 5764 5753 5744 5737 5730 5724 5716 5710 5705 5702 5700 5698 5694 5690 5686 5679 5679 5676 5672 5668 5662 5654 5649 5640